Content
SEND FEEDBACK

Daily
Averages
Monthly
Summary
Mexico

PUEBLA - JARDINES DE SAN MANUEL, PUEBLA


Home > North America > Mexico > Puebla
Elevation: 2122 meters     Latitude: 19 00N     Longitude: 098 11W

WEATHER
 
SELECT A DAY
Number of Records: 123,934;   Date Range: 1/1/95 - 10/22/14
 
SHARE

PRINT THIS DATA

[ ← Previous Day ]
WEATHER ALMANAC - 16 JANUARY, 2013
[ Next Day → ]
[ °F ]   °C
Weather ElementAverageHighLow
Temperature14.4 °C22.2 °C (2:50 pm)5 °C (5:52 am)
Dewpoint5.4 °C9.4 °C (8:50 am)2 °C (5:52 am)
Humidity55.2 %81 % (5:52 am)23 % (2:50 pm)
Barometer1021.3 hPa1027.4 hPa (10:43 pm)1007.1 hPa (5:50 pm)
Wind Speed11.1 km/h27.8 km/h (3:40 pm)
Weather ElementAverage
Visibility11.7 km
Wind DirectionSSW (189.2 °)

Weather ElementTotal
Precipitation---
Heating Degree Days4.7 (Base 18.3)
Growing Degree Days3.6 (Base 10)
Averaged from 26 records on 16 January, 2013
WEATHER CONDITIONS BREAKOUT
WIND DIRECTION BREAKOUT
WEATHER BY HOUR - 16 JANUARY, 2013
[ °F ]   °C
Local TimeTemperatureDewpointHumidityBarometerVisibilityWind DirectionWind SpeedGust SpeedPrecipitationEventsConditions
5:45 AM8.9 °C5.6 °C75 %1011.9 hPa4.8 kmCalm
5:52 AM5 °C2 °C81 %1025.4 hPa9.7 kmWNW (290°)3.7 km/hPartly Cloudy
6:41 AM6 °C3 °C81 %1025.7 hPa11.3 kmNW (320°)9.3 km/hPartly Cloudy
7:44 AM6 °C3 °C81 %1026.8 hPa11.3 kmNNW (340°)11.1 km/hClear
8:41 AM11 °C4 °C62 %1027.1 hPa9.7 kmWest (270°)3.7 km/hClear
8:50 AM12.2 °C9.4 °C76 %1015.9 hPa4.8 kmCalmHaze
9:41 AM15 °C7 °C59 %1027.1 hPa9.7 kmSouth (180°)11.1 km/hClear
10:41 AM17 °C8 °C55 %1026.8 hPa9.7 kmSSW (200°)18.5 km/hScattered Clouds
11:42 AM18 °C8 °C52 %1025.4 hPa11.3 kmSouth (180°)20.4 km/hMostly Cloudy
11:50 AM18.3 °C8.3 °C41 %1013.9 hPa19.3 kmESE (120°)7.2 km/hMostly Cloudy
12:43 PM20 °C7 °C43 %1024.4 hPa11.3 kmSouth (190°)20.4 km/hMostly Cloudy
1:40 PM20 °C6 °C40 %1023 hPa12.9 kmSouth (180°)20.4 km/hMostly Cloudy
2:41 PM21 °C6 °C38 %1022.4 hPa12.9 kmSE (140°)18.5 km/hMostly Cloudy
2:50 PM22.2 °C5.6 °C23 %1008.5 hPa19.3 kmSSE (150°)7.2 km/hPartly Cloudy
3:40 PM21 °C5 °C35 %1022 hPa12.9 kmSSE (160°)27.8 km/hScattered Clouds
4:40 PM21 °C4 °C33 %1022.4 hPa14.5 kmSSE (160°)18.5 km/hScattered Clouds
5:42 PM19 °C4 °C37 %1023.4 hPa14.5 kmSouth (180°)14.8 km/hScattered Clouds
5:50 PM19.4 °C3.9 °C25 %1007.1 hPa19.3 kmEast (90°)7.2 km/hScattered Clouds
6:41 PM15 °C5 °C51 %1024.4 hPa14.5 kmSSE (160°)11.1 km/hScattered Clouds
7:41 PM14 °C6 °C59 %1025.7 hPa12.9 kmESE (110°)11.1 km/hScattered Clouds
8:41 PM13 °C4 °C54 %1026.4 hPa12.9 kmNorth (10°)11.1 km/hScattered Clouds
8:45 PM13.3 °C7.8 °C61 %1008.5 hPa4.8 kmNE (40°)3.5 km/hScattered Clouds
9:42 PM11 °C4 °C62 %1027.1 hPa12.9 kmNorth (350°)7.4 km/hScattered Clouds
10:43 PM10 °C4 °C66 %1027.4 hPa12.9 kmNNW (330°)9.3 km/hScattered Clouds
11:40 PM8 °C3 °C71 %1027.4 hPa12.9 kmNNW (330°)11.1 km/hScattered Clouds
11:45 PM10.6 °C7.8 °C75 %1010.8 hPa4.8 kmENE (60°)3.5 km/h
Hourly data recorded from MMPB, located 0 kilometers away from Puebla - Jardines de San Manuel, Puebla







STORIES FROM OUR PARTNERS